LX0APE-4 Weather Reports


time (UTC)temp
F
wind
direction
speed
knots
gust
knots
rain 1hr
in
rain 24hr
in
rain mn
in
humidity
%
barometer
mb
20260510093141 65 22 0.0 0.0 0.00 0.00 0.00 59 5007.7
20260510092640 65 0 0.0 0.0 0.00 0.00 0.00 58 5007.8
20260510092140 65 22 0.0 0.0 0.00 0.00 0.00 59 5007.7
20260510091640 64 157 0.0 0.0 0.00 0.00 0.00 59 5007.7
20260510091140 64 0 0.0 0.0 0.00 0.00 0.00 60 5007.9
20260510090640 64 22 0.0 0.0 0.00 0.00 0.00 60 5008.1
20260510090140 63 45 0.0 0.0 0.00 0.00 0.00 61 5008.0
20260510085640 63 202 0.0 0.0 0.00 0.00 0.00 61 5008.1
20260510085140 62 45 0.0 0.0 0.00 0.00 0.00 62 5007.9
20260510084640 62 22 0.0 0.0 0.00 0.00 0.00 62 5008.0
20260510084140 62 22 0.0 0.0 0.00 0.00 0.00 63 5008.0
20260510083640 61 0 0.0 0.0 0.00 0.00 0.00 63 5008.1
20260510083140 61 22 0.0 0.0 0.00 0.00 0.00 64 5008.1
20260510082640 60 22 0.0 0.0 0.00 0.00 0.00 64 5008.0
20260510082140 60 0 0.0 0.0 0.00 0.00 0.00 64 5008.1
20260510081640 60 0 0.0 0.0 0.00 0.00 0.00 65 5008.3
20260510081140 60 0 0.0 0.0 0.00 0.00 0.00 65 5008.2
20260510080640 59 22 0.0 0.0 0.00 0.00 0.00 65 5008.2
20260510080141 59 22 0.0 0.0 0.00 0.00 0.00 65 5008.2
20260510075641 59 0 0.0 0.0 0.00 0.00 0.00 65 5008.2
20260510075141 59 0 0.0 0.0 0.00 0.00 0.00 65 5008.1
20260510074641 59 202 0.0 0.0 0.00 0.00 0.00 65 5007.9
20260510074141 59 0 0.0 0.0 0.00 0.00 0.00 65 5007.9
20260510073641 59 0 0.0 0.0 0.00 0.00 0.00 65 5008.1
20260510073141 59 22 0.0 0.0 0.00 0.00 0.00 66 5008.1
20260510072641 59 315 0.0 0.0 0.00 0.00 0.00 66 5008.2
20260510072141 58 22 0.0 0.0 0.00 0.00 0.00 66 5008.3
20260510071641 58 0 0.0 0.0 0.00 0.00 0.00 67 5008.4
20260510071141 58 22 0.0 0.0 0.00 0.00 0.00 67 5008.5
20260510070641 57 0 0.0 0.0 0.00 0.00 0.00 68 5008.5
20260510070141 57 0 0.0 0.0 0.00 0.00 0.00 68 5008.5
20260510065641 57 0 0.0 0.0 0.00 0.00 0.00 69 5008.6
20260510065145 57 22 0.0 0.0 0.00 0.00 0.00 69 5008.5
20260510065141 57 22 0.0 0.0 0.00 0.00 0.00 69 5008.5
20260510064641 56 22 0.0 0.0 0.00 0.00 0.00 69 5008.5
20260510064141 56 292 0.0 0.0 0.00 0.00 0.00 69 5008.6
20260510063641 56 22 0.0 0.0 0.00 0.00 0.00 70 5008.4
20260510063141 56 22 0.0 0.0 0.00 0.00 0.00 70 5008.4
20260510062641 55 292 0.0 0.0 0.00 0.00 0.00 70 5008.4
20260510062145 55 0 0.0 0.0 0.00 0.00 0.00 70 5008.4
20260510062141 55 0 0.0 0.0 0.00 0.00 0.00 70 5008.4
20260510061641 55 337 0.0 0.0 0.00 0.00 0.00 70 5008.5
20260510061141 55 0 0.0 0.0 0.00 0.00 0.00 70 5008.5
20260510060641 55 0 0.0 0.0 0.00 0.00 0.00 70 5008.5
20260510060141 54 45 0.0 0.0 0.00 0.00 0.00 70 5008.5
20260510055641 54 0 0.0 0.0 0.00 0.00 0.00 71 5008.5
20260510055145 54 337 0.0 0.0 0.00 0.00 0.00 71 5008.6
20260510055141 54 337 0.0 0.0 0.00 0.00 0.00 71 5008.6
20260510054641 54 0 0.0 0.0 0.00 0.00 0.00 71 5008.6
20260510054141 54 337 0.0 0.0 0.00 0.00 0.00 71 5008.7
20260510053646 54 0 0.0 0.0 0.00 0.00 0.00 71 5008.7
20260510053641 54 0 0.0 0.0 0.00 0.00 0.00 71 5008.7
20260510053141 53 0 0.0 0.0 0.00 0.00 0.00 71 5008.5
20260510052641 53 22 0.0 0.0 0.00 0.00 0.00 71 5008.5
20260510052141 53 67 0.0 0.0 0.00 0.00 0.00 72 5008.6
20260510051641 53 337 0.0 0.0 0.00 0.00 0.00 72 5008.5
20260510051141 53 22 0.0 0.0 0.00 0.00 0.00 72 5008.5
20260510050641 53 0 0.0 0.0 0.00 0.00 0.00 72 5008.5
20260510050141 53 22 0.0 0.0 0.00 0.00 0.00 73 5008.5
20260510045641 53 315 0.0 0.0 0.00 0.00 0.00 73 5008.5
20260510045141 53 45 0.0 0.0 0.00 0.00 0.00 73 5008.6
20260510044641 53 337 0.0 0.0 0.00 0.00 0.00 73 5008.5
20260510044141 53 22 0.0 0.0 0.00 0.00 0.00 73 5008.7
20260510043646 52 45 0.0 0.0 0.00 0.00 0.00 73 5008.6
20260510043641 52 45 0.0 0.0 0.00 0.00 0.00 73 5008.6
20260510043141 52 0 0.0 0.0 0.00 0.00 0.00 73 5008.6
20260510042641 52 22 0.0 0.0 0.00 0.00 0.00 74 5008.7
20260510042141 52 90 0.0 0.0 0.00 0.00 0.00 74 5008.5
20260510041641 52 270 0.0 0.0 0.00 0.00 0.00 74 5008.6
20260510041141 52 180 0.0 0.0 0.00 0.00 0.00 73 5008.6
20260510040641 52 22 0.0 0.0 0.00 0.00 0.00 73 5008.8
20260510040141 53 45 0.0 0.0 0.00 0.00 0.00 73 5008.6
20260510035641 53 0 0.0 0.0 0.00 0.00 0.00 73 5008.6
20260510035141 53 0 0.0 0.0 0.00 0.00 0.00 73 5008.8
20260510034641 53 45 0.0 0.0 0.00 0.00 0.00 72 5008.8
20260510034141 53 22 0.0 0.0 0.00 0.00 0.00 72 5008.9
20260510033641 53 292 0.0 0.0 0.00 0.00 0.00 72 5008.9
20260510033141 53 135 0.0 0.0 0.00 0.00 0.00 71 5009.0
20260510032641 54 22 0.0 0.0 0.00 0.00 0.00 71 5008.9
20260510032141 54 45 0.0 0.0 0.00 0.00 0.00 71 5008.8
20260510031641 54 45 0.0 0.0 0.00 0.00 0.00 71 5008.9
20260510031141 54 45 0.0 0.0 0.00 0.00 0.00 71 5008.9
20260510030641 54 0 0.0 0.0 0.00 0.00 0.00 71 5009.2
20260510030141 54 45 0.0 0.0 0.00 0.00 0.00 71 5009.0
20260510025641 54 45 0.0 0.0 0.00 0.00 0.00 71 5009.2
20260510025146 54 0 0.0 0.0 0.00 0.00 0.00 70 5009.2
20260510025141 54 0 0.0 0.0 0.00 0.00 0.00 70 5009.2
20260510024641 54 337 0.0 0.0 0.00 0.00 0.00 70 5009.2
20260510024141 54 337 0.0 0.0 0.00 0.00 0.00 70 5009.2
20260510023646 54 0 0.0 0.0 0.00 0.00 0.00 70 5009.2
20260510023641 54 0 0.0 0.0 0.00 0.00 0.00 70 5009.2
20260510023141 54 292 0.0 0.0 0.00 0.00 0.00 69 5009.4
20260510022641 54 22 0.0 0.0 0.00 0.00 0.00 69 5009.4
20260510022141 55 0 0.0 0.0 0.00 0.00 0.00 69 5009.4
20260510021641 55 337 0.0 0.0 0.00 0.00 0.00 69 5009.5
20260510021141 55 337 0.0 0.0 0.00 0.00 0.00 68 5009.5
20260510020641 55 0 0.0 0.0 0.00 0.00 0.00 68 5009.4
20260510020141 55 0 0.0 0.0 0.00 0.00 0.00 67 5009.5
20260510015641 55 22 0.0 0.0 0.00 0.00 0.00 67 5009.4
20260510015141 55 22 0.0 0.0 0.00 0.00 0.00 66 5009.7
20260510014641 56 0 0.0 0.0 0.00 0.00 0.00 66 5009.7
20260510014141 56 0 0.0 0.0 0.00 0.00 0.00 66 5009.8
20260510013646 56 45 0.0 0.0 0.00 0.00 0.00 66 5009.8
20260510013641 56 45 0.0 0.0 0.00 0.00 0.00 66 5009.8
20260510013141 56 22 0.0 0.0 0.00 0.00 0.00 65 5009.6
20260510012641 56 0 0.0 0.0 0.00 0.00 0.00 65 5009.5
20260510012141 56 0 0.0 0.0 0.00 0.00 0.00 65 5009.7
20260510011641 56 22 0.0 0.0 0.00 0.00 0.00 65 5009.7
20260510011141 57 0 0.0 0.0 0.00 0.00 0.00 65 5009.8
20260510010656 57 45 0.0 0.0 0.00 0.00 0.00 64 5009.8
20260510010646 57 45 0.0 0.0 0.00 0.00 0.00 64 5009.8
20260510010641 57 45 0.0 0.0 0.00 0.00 0.00 64 5009.8
20260510010141 57 22 0.0 0.0 0.00 0.00 0.00 64 5009.8
20260510005641 57 22 0.0 0.0 0.00 0.00 0.00 63 5009.8
20260510005148 57 22 0.0 0.0 0.00 0.00 0.00 63 5009.9
20260510005141 57 22 0.0 0.0 0.00 0.00 0.00 63 5009.9
20260510004641 58 225 0.0 0.0 0.00 0.00 0.00 62 5009.9
20260510004141 58 0 0.0 0.0 0.00 0.00 0.00 61 5010.0
20260510003646 58 22 0.0 0.0 0.00 0.00 0.00 60 5009.9
20260510003641 58 22 0.0 0.0 0.00 0.00 0.00 60 5009.9
20260510003141 59 22 0.0 0.0 0.00 0.00 0.00 60 5010.1
20260510002641 59 0 0.0 0.0 0.00 0.00 0.00 59 5010.1
20260510002145 59 0 0.0 0.0 0.00 0.00 0.00 59 5010.1
20260510002141 59 0 0.0 0.0 0.00 0.00 0.00 59 5010.1
20260510001641 59 22 0.0 0.0 0.00 0.00 0.00 58 5010.2
20260510001141 59 45 0.0 0.0 0.00 0.00 0.00 57 5010.2
20260510000641 59 22 0.0 0.0 0.00 0.00 0.00 57 5010.2
20260510000141 59 67 0.0 0.0 0.00 0.00 0.00 57 5010.2
20260509235641 60 45 0.0 0.0 0.00 0.00 0.00 57 5010.3
20260509235141 60 0 0.0 0.0 0.00 0.00 0.00 57 5010.2
20260509234641 60 22 0.0 0.0 0.00 0.00 0.00 56 5010.5
20260509234141 60 67 0.0 0.0 0.00 0.00 0.00 56 5010.5
20260509233756 60 22 0.0 0.0 0.00 0.00 0.00 56 5010.6
20260509233647 60 22 0.0 0.0 0.00 0.00 0.00 56 5010.6
20260509233641 60 22 0.0 0.0 0.00 0.00 0.00 56 5010.6
20260509233141 60 22 0.0 0.0 0.00 0.00 0.00 56 5010.5
20260509232641 60 22 0.0 0.0 0.00 0.00 0.00 56 5010.5
20260509232141 60 45 0.0 0.0 0.00 0.00 0.00 56 5010.5
20260509231641 60 45 0.0 0.0 0.00 0.00 0.00 56 5010.6
20260509231141 60 22 0.0 0.0 0.00 0.00 0.00 56 5010.5
20260509230646 60 22 0.0 0.0 0.00 0.00 0.00 56 5010.6
20260509230641 60 22 0.0 0.0 0.00 0.00 0.00 56 5010.6
20260509230141 60 22 0.0 0.0 0.00 0.00 0.00 55 5010.6
20260509225641 61 45 0.0 0.0 0.00 0.00 0.00 55 5010.7
20260509225141 61 45 0.0 0.0 0.00 0.00 0.00 55 5010.6
20260509224641 61 45 0.0 0.0 0.00 0.00 0.00 55 5010.6
20260509224141 61 45 0.0 0.0 0.00 0.00 0.00 54 5010.6
20260509223641 61 0 0.0 0.0 0.00 0.00 0.00 54 5010.7
20260509223141 61 22 0.0 0.0 0.00 0.00 0.00 54 5010.6
20260509222641 61 292 0.0 0.0 0.00 0.00 0.00 54 5010.8
20260509222141 61 0 0.0 0.0 0.00 0.00 0.00 54 5010.8
20260509221641 61 45 0.0 0.0 0.00 0.00 0.00 54 5010.9
20260509221141 62 112 0.0 0.0 0.00 0.00 0.00 53 5010.9
20260509220642 62 22 0.0 0.0 0.00 0.00 0.00 53 5010.9
20260509220142 62 22 0.0 0.0 0.00 0.00 0.00 53 5011.1
20260509215641 62 22 0.0 0.0 0.00 0.00 0.00 53 5010.9
20260509215141 62 0 0.0 0.0 0.00 0.00 0.00 53 5011.1
20260509214641 62 22 0.0 0.0 0.00 0.00 0.00 53 5011.1
20260509214141 62 22 0.0 0.0 0.00 0.00 0.00 53 5011.3
20260509213642 62 45 0.0 0.0 0.00 0.00 0.00 53 5011.2
20260509213142 63 0 0.0 0.0 0.00 0.00 0.00 53 5011.3
20260509212642 63 45 0.0 0.0 0.00 0.00 0.00 52 5011.2
20260509212142 63 90 0.0 0.0 0.00 0.00 0.00 52 5011.2
20260509211642 63 45 0.0 0.0 0.00 0.00 0.00 52 5011.2
20260509211142 63 45 0.0 0.0 0.00 0.00 0.00 52 5011.4
20260509210642 63 45 0.0 0.0 0.00 0.00 0.00 51 5011.3
20260509210142 63 67 0.0 0.0 0.00 0.00 0.00 51 5011.5
20260509205642 64 67 0.0 0.0 0.00 0.00 0.00 51 5011.4
20260509205142 64 67 0.0 0.0 0.00 0.00 0.00 50 5011.4
20260509204642 64 67 0.0 0.0 0.00 0.00 0.00 50 5011.4
20260509204142 64 67 0.0 0.0 0.00 0.00 0.00 50 5011.6
20260509203642 64 45 0.0 0.0 0.00 0.00 0.00 49 5011.4
20260509203142 65 0 0.0 0.0 0.00 0.00 0.00 49 5011.5
20260509202642 65 45 0.0 0.0 0.00 0.00 0.00 48 5011.6
20260509202142 65 67 0.0 0.0 0.00 0.00 0.00 48 5011.6
20260509201642 65 45 0.0 0.0 0.00 0.00 0.00 47 5011.5
20260509201142 65 67 0.0 0.0 0.00 0.00 0.00 47 5011.4
20260509200646 66 45 0.0 0.0 0.00 0.00 0.00 47 5011.3
20260509200642 66 45 0.0 0.0 0.00 0.00 0.00 47 5011.3
20260509200142 66 22 0.0 0.0 0.00 0.00 0.00 46 5011.3
20260509195642 66 22 0.0 0.0 0.00 0.00 0.00 46 5011.4
20260509195142 66 45 0.0 0.0 0.00 0.00 0.00 45 5011.4
20260509194642 67 22 0.0 0.0 0.00 0.00 0.00 44 5011.5
20260509194142 67 337 0.0 0.0 0.00 0.00 0.00 44 5011.4
20260509193757 67 22 0.0 0.0 0.00 0.00 0.00 44 5011.4
20260509193642 67 22 0.0 0.0 0.00 0.00 0.00 44 5011.4
20260509193142 67 22 0.0 0.0 0.00 0.00 0.00 44 5011.3
20260509192642 67 0 0.0 0.0 0.00 0.00 0.00 43 5011.3
20260509192142 68 22 0.0 0.0 0.00 0.00 0.00 42 5011.3
20260509191642 68 0 0.0 0.0 0.00 0.00 0.00 42 5011.2
20260509191142 68 0 0.0 0.0 0.00 0.00 0.00 41 5011.3
20260509190642 69 22 0.0 0.0 0.00 0.00 0.00 40 5011.4
20260509190142 69 0 0.0 0.0 0.00 0.00 0.00 40 5011.3
20260509185642 70 0 0.0 0.0 0.00 0.00 0.00 38 5011.3
20260509185142 71 22 0.0 0.0 0.00 0.00 0.00 36 5011.3
20260509184642 72 22 0.0 0.0 0.00 0.00 0.00 34 5011.4
20260509184142 73 22 0.0 0.0 0.00 0.00 0.00 33 5011.3
20260509183642 74 0 0.0 0.0 0.00 0.00 0.00 32 5011.2
20260509183142 76 0 0.0 0.0 0.00 0.00 0.00 30 5011.1
20260509182642 78 67 0.0 0.0 0.00 0.00 0.00 28 5011.1
20260509182142 80 67 0.0 0.0 0.00 0.00 0.00 27 5011.1
20260509181642 82 67 0.0 0.0 0.00 0.00 0.00 26 5011.2
20260509181142 84 67 0.0 0.0 0.00 0.00 0.00 25 5011.2
20260509180642 85 67 0.0 0.0 0.00 0.00 0.00 25 5011.2
20260509180142 87 67 0.0 0.0 0.00 0.00 0.00 24 5011.0
20260509175642 90 112 0.0 0.0 0.00 0.00 0.00 23 5011.2
20260509175142 91 112 0.0 0.0 0.00 0.00 0.00 22 5011.1
20260509174642 92 112 0.0 0.0 0.00 0.00 0.00 22 5010.9
20260509174142 94 112 0.0 0.0 0.00 0.00 0.00 21 5010.9
20260509173642 95 112 0.0 0.0 0.00 0.00 0.00 21 5011.0
20260509173142 96 112 0.0 0.0 0.00 0.00 0.00 20 5010.8
20260509172642 97 112 0.0 0.0 0.00 0.00 0.00 20 5011.0
20260509172142 96 112 0.0 0.0 0.00 0.00 0.00 20 5011.2
20260509171642 96 112 0.0 0.0 0.00 0.00 0.00 20 5011.0
20260509171142 97 90 0.0 0.0 0.00 0.00 0.00 20 5010.9
20260509170646 98 90 0.0 0.0 0.00 0.00 0.00 19 5011.0
20260509170642 98 90 0.0 0.0 0.00 0.00 0.00 19 5011.0
20260509170142 97 112 0.0 0.0 0.00 0.00 0.00 20 5010.9
20260509165642 97 135 0.0 0.0 0.00 0.00 0.00 20 5011.1
20260509165142 96 135 0.0 0.0 0.00 0.00 0.00 20 5011.0
20260509164642 96 135 0.0 0.0 0.00 0.00 0.00 20 5010.9
20260509164142 96 67 0.0 0.0 0.00 0.00 0.00 20 5011.0
20260509163644 96 67 0.0 0.0 0.00 0.00 0.00 20 5010.9
20260509163142 96 0 0.0 0.0 0.00 0.00 0.00 20 5010.9
20260509162642 96 67 0.0 0.0 0.00 0.00 0.00 20 5011.0
20260509162142 93 135 0.0 0.0 0.00 0.00 0.00 21 5011.0
20260509161642 93 135 0.0 0.0 0.00 0.00 0.00 23 5011.2
20260509161142 89 135 0.0 0.0 0.00 0.00 0.00 24 5011.0
20260509160642 90 45 0.0 0.0 0.00 0.00 0.00 22 5011.1
20260509160142 93 45 0.0 0.0 0.00 0.00 0.00 23 5011.0
20260509155642 92 45 0.0 0.0 0.00 0.00 0.00 22 5011.1
20260509155142 90 0 0.0 0.0 0.00 0.00 0.00 23 5011.2
20260509154642 88 45 0.0 0.0 0.00 0.00 0.00 24 5011.0
20260509154142 90 67 0.0 0.0 0.00 0.00 0.00 22 5011.2
20260509153642 94 67 0.0 0.0 0.00 0.00 0.00 21 5011.2
20260509153142 96 67 0.0 0.0 0.00 0.00 0.00 20 5011.2
20260509152642 97 67 0.0 0.0 0.00 0.00 0.00 21 5011.3
20260509152142 94 112 0.0 0.0 0.00 0.00 0.00 21 5011.4
20260509151642 94 45 0.0 0.0 0.00 0.00 0.00 23 5011.3
20260509151142 96 247 0.0 0.0 0.00 0.00 0.00 22 5011.4
20260509150642 97 22 0.0 0.0 0.00 0.00 0.00 22 5011.4
20260509150142 94 45 0.0 0.0 0.00 0.00 0.00 24 5011.5
20260509145642 91 112 0.0 0.0 0.00 0.00 0.00 26 5011.6
20260509145142 87 45 0.0 0.0 0.00 0.00 0.00 27 5011.3
20260509144642 85 45 0.0 0.0 0.00 0.00 0.00 28 5011.3
20260509144142 84 67 0.0 0.0 0.00 0.00 0.00 28 5011.5
20260509143642 82 90 0.0 0.0 0.00 0.00 0.00 30 5011.6
20260509143142 83 90 0.0 0.0 0.00 0.00 0.00 29 5011.6
20260509142642 84 45 0.0 0.0 0.00 0.00 0.00 29 5011.6
20260509142142 82 45 0.0 0.0 0.00 0.00 0.00 30 5011.5
20260509141642 82 45 0.0 0.0 0.00 0.00 0.00 29 5011.6
20260509141142 82 45 0.0 0.0 0.00 0.00 0.00 28 5011.8
20260509140645 85 45 0.0 0.0 0.00 0.00 0.00 26 5011.8
20260509140642 85 45 0.0 0.0 0.00 0.00 0.00 26 5011.8
20260509140142 90 45 0.0 0.0 0.00 0.00 0.00 25 5011.8
20260509135642 93 337 0.0 0.0 0.00 0.00 0.00 23 5011.6
20260509135142 94 270 0.0 0.0 0.00 0.00 0.00 24 5011.8
20260509134642 94 45 0.0 0.0 0.00 0.00 0.00 24 5011.9
20260509134142 93 180 0.0 0.0 0.00 0.00 0.00 25 5012.0
20260509133644 91 157 0.0 0.0 0.00 0.00 0.00 26 5011.9
20260509133642 91 157 0.0 0.0 0.00 0.00 0.00 26 5011.9
20260509133142 89 45 0.0 0.0 0.00 0.00 0.00 26 5012.0
20260509132642 88 0 0.0 0.0 0.00 0.00 0.00 27 5012.1
20260509132142 86 157 0.0 0.0 0.00 0.00 0.00 28 5012.2
20260509131642 85 135 0.0 0.0 0.00 0.00 0.00 28 5012.0
20260509131142 84 157 0.0 0.0 0.00 0.00 0.00 29 5012.1
20260509130642 82 135 0.0 0.0 0.00 0.00 0.00 30 5012.2
20260509130142 82 90 0.0 0.0 0.00 0.00 0.00 29 5012.3
20260509125642 85 22 0.0 0.0 0.00 0.00 0.00 28 5012.1
20260509125142 87 0 0.0 0.0 0.00 0.00 0.00 27 5012.2
20260509124642 89 112 0.0 0.0 0.00 0.00 0.00 26 5012.2
20260509124142 87 270 0.0 0.0 0.00 0.00 0.00 27 5012.3
20260509123642 86 112 0.0 0.0 0.00 0.00 0.00 28 5012.3
20260509123142 86 22 0.0 0.0 0.00 0.00 0.00 28 5012.3
20260509122642 86 90 0.0 0.0 0.00 0.00 0.00 29 5012.5
20260509122142 85 135 0.0 0.0 0.00 0.00 0.00 29 5012.5
20260509121642 84 135 0.0 0.0 0.00 0.00 0.00 30 5012.6
20260509121142 83 180 0.0 0.0 0.00 0.00 0.00 31 5012.7
20260509120642 82 135 0.0 0.0 0.00 0.00 0.00 32 5012.7
20260509120142 81 135 0.0 0.0 0.00 0.00 0.00 32 5013.0
20260509115642 81 67 0.0 0.0 0.00 0.00 0.00 33 5012.9
20260509115142 81 90 0.0 0.0 0.00 0.00 0.00 32 5012.9
20260509114643 80 112 0.0 0.0 0.00 0.00 0.00 33 5013.0
20260509114142 79 135 0.0 0.0 0.00 0.00 0.00 34 5013.0
20260509113642 79 135 0.0 0.0 0.00 0.00 0.00 35 5013.0
20260509113142 78 157 0.0 0.0 0.00 0.00 0.00 36 5013.0
20260509112642 78 112 0.0 0.0 0.00 0.00 0.00 36 5013.1
20260509112143 77 135 0.0 0.0 0.00 0.00 0.00 36 5013.2
20260509111642 77 292 0.0 0.0 0.00 0.00 0.00 37 5013.3
20260509111143 76 135 0.0 0.0 0.00 0.00 0.00 38 5013.4
20260509110642 76 135 0.0 0.0 0.00 0.00 0.00 39 5013.3
20260509110143 75 315 0.0 0.0 0.00 0.00 0.00 39 5013.3
20260509105642 74 135 0.0 0.0 0.00 0.00 0.00 41 5013.5
20260509105142 73 112 0.0 0.0 0.00 0.00 0.00 41 5013.7
20260509104643 73 0 0.0 0.0 0.00 0.00 0.00 42 5013.7
20260509104143 72 90 0.0 0.0 0.00 0.00 0.00 44 5013.8
20260509103643 71 112 0.0 0.0 0.00 0.00 0.00 44 5013.7
20260509103143 70 180 0.0 0.0 0.00 0.00 0.00 46 5013.8
20260509102643 70 67 0.0 0.0 0.00 0.00 0.00 46 5013.9
20260509102143 70 67 0.0 0.0 0.00 0.00 0.00 46 5013.8
20260509101643 70 67 0.0 0.0 0.00 0.00 0.00 47 5014.0
20260509101143 69 112 0.0 0.0 0.00 0.00 0.00 49 5014.0
20260509100643 69 112 0.0 0.0 0.00 0.00 0.00 49 5014.0
20260509100143 68 67 0.0 0.0 0.00 0.00 0.00 50 5013.8
20260509095643 67 135 0.0 0.0 0.00 0.00 0.00 52 5013.9
20260509095147 66 292 0.0 0.0 0.00 0.00 0.00 53 5014.1
20260509095143 66 292 0.0 0.0 0.00 0.00 0.00 53 5014.1
20260509094643 66 0 0.0 0.0 0.00 0.00 0.00 54 5014.1
20260509094143 66 135 0.0 0.0 0.00 0.00 0.00 55 5014.1
20260509093643 65 157 0.0 0.0 0.00 0.00 0.00 56 5014.3